Location: Pian di Sc�
(43.6333°N, 11.5500°E)
Time: 14:23:19
(UTC+00:00)

Okean 2 Rocket - Pass Details

Date: 07 August 2020
Orbit: 616 x 642 km, 82.5° (Epoch: 24 September)

Event Time Altitude Azimuth Distance (km) Brightness Sun altitude
Exits shadow 00:41:45 46° 328° (NNW) 847 3.9 -27.2°
Drops below altitude 10° 00:45:13 10° 1° (N) 2,029 6.5 -26.9°
Sets 00:47:31 0° 5° (N) 2,946 7.7 -26.7°
